カタログに戻る

CZ-6A DEB

運用中SSO
NORAD 54292·DEBRIS·🇨🇳 China

打ち上げ Nov 11, 2022 から Taiyuan Satellite Launch Center

Loading…

次のパス (今後24時間)

TLE

最新Source: Space-Track

元期: Sep 14, 2026, 23:09 UTC

1 54292U 22151AK  26257.96521447  .00000005  00000-0  28950-4 0  9996
2 54292  98.8810 250.4792 0063149 113.6922 247.0890 14.05798385196549

AllMySatでCZ-6A DEBをリアルタイム追跡

Download on the App Store